OAL638 LFMH-LICR

Flight info

Callsign OAL638
Flight time 1h 54m
Altitude 35000
Route LERGA DCT MEBAK H38 LTP UY36 BALSI DCT KUMIN DCT KONER DCT MEDAL DCT TAGEL DCT REGSO DCT FOSQA
Aircraft B737/M-VGDW/C

Departure

Time 2026-04-29 08:22
Airport Saint-Étienne-Bouthéon Airport (LFMH)

Arrival

Time 2026-04-29 10:17
Airport Reggio Calabria Airport (LICR)
Time Latitude Longitude Altitude Speed Heading
2026-04-29 08:02 45.53172 4.29470 1329 ft 0 kts 265°
2026-04-29 08:12 45.53172 4.29471 1329 ft 2 kts 264°
2026-04-29 08:12 45.53174 4.29500 1329 ft 3 kts 258°
2026-04-29 08:12 45.53184 4.29525 1337 ft 3 kts 215°
2026-04-29 08:12 45.53202 4.29535 1328 ft 1 kts 173°
2026-04-29 08:17 45.53198 4.29536 1328 ft 3 kts 173°
2026-04-29 08:17 45.53119 4.29549 1334 ft 17 kts 173°
2026-04-29 08:18 45.53055 4.29610 1331 ft 4 kts 103°
2026-04-29 08:18 45.53055 4.29611 1331 ft 0 kts 101°
2026-04-29 08:20 45.53054 4.29638 1331 ft 8 kts 88°
2026-04-29 08:20 45.53064 4.29732 1331 ft 13 kts 64°
2026-04-29 08:20 45.53145 4.29765 1330 ft 13 kts 354°
2026-04-29 08:21 45.53229 4.29752 1328 ft 5 kts 356°
2026-04-29 08:21 45.53252 4.29750 1328 ft 0 kts 355°
2026-04-29 08:21 45.53292 4.29745 1330 ft 19 kts 355°
2026-04-29 08:21 45.53641 4.29702 1322 ft 96 kts 355°
2026-04-29 08:22 45.54616 4.29583 1383 ft 176 kts 354°
2026-04-29 08:22 45.55946 4.29393 2264 ft 201 kts 355°
2026-04-29 08:22 45.57329 4.29198 3614 ft 202 kts 356°
2026-04-29 08:22 45.58837 4.29013 4133 ft 235 kts 355°
2026-04-29 08:23 45.60550 4.28780 4613 ft 255 kts 350°
2026-04-29 08:23 45.62147 4.27684 5289 ft 259 kts 314°
2026-04-29 08:23 45.63045 4.25527 6158 ft 253 kts 282°
2026-04-29 08:23 45.63066 4.23047 6908 ft 253 kts 252°
2026-04-29 08:24 45.62229 4.20820 7471 ft 263 kts 226°
2026-04-29 08:24 45.60789 4.19126 8169 ft 274 kts 211°
2026-04-29 08:24 45.59142 4.17745 9233 ft 275 kts 208°
2026-04-29 08:24 45.57461 4.16421 10287 ft 278 kts 207°
2026-04-29 08:25 45.55703 4.15038 10813 ft 301 kts 208°
2026-04-29 08:25 45.53794 4.13511 11206 ft 325 kts 208°
2026-04-29 08:25 45.51830 4.11916 12002 ft 332 kts 209°
2026-04-29 08:25 45.49811 4.10260 12967 ft 336 kts 209°
2026-04-29 08:26 45.47770 4.08577 13889 ft 342 kts 209°
2026-04-29 08:26 45.45692 4.06860 14731 ft 346 kts 209°
2026-04-29 08:26 45.43594 4.05126 15583 ft 351 kts 209°
2026-04-29 08:26 45.41469 4.03374 16430 ft 355 kts 209°
2026-04-29 08:27 45.39364 4.01503 17248 ft 361 kts 218°
2026-04-29 08:27 45.37715 3.98793 18112 ft 365 kts 235°
2026-04-29 08:27 45.36273 3.95791 18915 ft 369 kts 234°
2026-04-29 08:27 45.34777 3.92804 19667 ft 372 kts 234°
2026-04-29 08:28 45.33259 3.89816 20457 ft 375 kts 234°
2026-04-29 08:28 45.31720 3.86799 21165 ft 379 kts 234°
2026-04-29 08:28 45.30164 3.83751 21874 ft 383 kts 234°
2026-04-29 08:28 45.28596 3.80677 22613 ft 386 kts 234°
2026-04-29 08:29 45.27019 3.77585 23337 ft 388 kts 234°
2026-04-29 08:29 45.25449 3.74502 23959 ft 392 kts 236°
2026-04-29 08:29 45.24260 3.71023 24480 ft 396 kts 255°
2026-04-29 08:29 45.23956 3.67141 25137 ft 398 kts 271°
2026-04-29 08:30 45.24423 3.63261 25733 ft 403 kts 286°
2026-04-29 08:30 45.27594 3.56665 26788 ft 418 kts 320°
2026-04-29 08:30 45.30152 3.54626 27322 ft 427 kts 338°
2026-04-29 08:31 45.33088 3.53816 27839 ft 437 kts 356°
2026-04-29 08:31 45.36126 3.54395 28321 ft 446 kts 16°
2026-04-29 08:31 45.38918 3.56376 28784 ft 454 kts 34°
2026-04-29 08:31 45.41161 3.59556 29208 ft 461 kts 55°
2026-04-29 08:32 45.42528 3.63673 29618 ft 465 kts 76°
2026-04-29 08:32 45.42900 3.68230 30075 ft 465 kts 91°
2026-04-29 08:32 45.42745 3.72776 30430 ft 467 kts 96°
2026-04-29 08:32 45.42382 3.77388 30739 ft 470 kts 98°
2026-04-29 08:33 45.41995 3.82031 31037 ft 474 kts 97°
2026-04-29 08:33 45.41580 3.91419 31143 ft 477 kts 91°
2026-04-29 08:34 45.41898 4.00849 31268 ft 478 kts 83°
2026-04-29 08:34 45.42546 4.05484 31690 ft 477 kts 73°
2026-04-29 08:34 45.43721 4.09861 32242 ft 472 kts 63°
2026-04-29 08:34 45.45302 4.13933 32803 ft 467 kts 56°
2026-04-29 08:35 45.47100 4.17749 33304 ft 463 kts 53°
2026-04-29 08:35 45.49002 4.21458 33704 ft 463 kts 51°
2026-04-29 08:35 45.50931 4.25137 34056 ft 463 kts 51°
2026-04-29 08:35 45.52848 4.28826 34375 ft 463 kts 52°
2026-04-29 08:36 45.54748 4.32544 34643 ft 464 kts 52°
2026-04-29 08:36 45.56630 4.36287 34920 ft 465 kts 53°
2026-04-29 08:36 45.58506 4.40052 35057 ft 468 kts 53°
2026-04-29 08:37 45.62282 4.47674 35045 ft 469 kts 53°
2026-04-29 08:37 45.66008 4.55204 35052 ft 462 kts 53°
2026-04-29 08:38 45.69363 4.63024 35054 ft 464 kts 71°
2026-04-29 08:38 45.70007 4.67532 35079 ft 464 kts 87°
2026-04-29 08:38 45.69782 4.72118 35082 ft 462 kts 104°
2026-04-29 08:39 45.68146 4.80943 35079 ft 463 kts 105°
2026-04-29 08:39 45.66564 4.89933 35059 ft 463 kts 110°
2026-04-29 08:40 45.63972 4.98254 35077 ft 462 kts 117°
2026-04-29 08:40 45.61171 5.06532 35076 ft 463 kts 117°
2026-04-29 08:41 45.58425 5.14846 35071 ft 464 kts 116°
2026-04-29 08:41 45.55697 5.23201 35069 ft 464 kts 116°
2026-04-29 08:42 45.52965 5.31550 35071 ft 464 kts 116°
2026-04-29 08:42 45.50236 5.39906 35070 ft 465 kts 114°
2026-04-29 08:43 45.48677 5.48837 35063 ft 467 kts 94°
2026-04-29 08:43 45.48532 5.58012 35071 ft 466 kts 91°
2026-04-29 08:44 45.48387 5.67250 35070 ft 467 kts 91°
2026-04-29 08:44 45.48180 5.76502 35066 ft 467 kts 91°
2026-04-29 08:45 45.47956 5.85748 35076 ft 467 kts 91°
2026-04-29 08:45 45.47438 5.94949 35058 ft 467 kts 103°
2026-04-29 08:46 45.45163 6.03551 35075 ft 464 kts 118°
2026-04-29 08:46 45.42136 6.11687 35067 ft 465 kts 118°
2026-04-29 08:47 45.39135 6.19841 35062 ft 465 kts 118°
2026-04-29 08:47 45.36159 6.28017 35051 ft 465 kts 118°
2026-04-29 08:48 45.33193 6.36185 35051 ft 465 kts 118°
2026-04-29 08:48 45.30216 6.44355 35056 ft 465 kts 118°
2026-04-29 08:49 45.27235 6.52507 35073 ft 465 kts 118°
2026-04-29 08:49 45.24247 6.60652 35080 ft 465 kts 118°
2026-04-29 08:50 45.21278 6.68722 35089 ft 465 kts 118°
2026-04-29 08:50 45.18281 6.76841 35099 ft 465 kts 118°
2026-04-29 08:51 45.15278 6.84955 35112 ft 464 kts 118°
2026-04-29 08:51 45.12273 6.93050 35117 ft 464 kts 118°
2026-04-29 08:52 45.09274 7.01105 35137 ft 462 kts 118°
2026-04-29 08:52 45.06269 7.09154 35152 ft 462 kts 118°
2026-04-29 08:53 45.03260 7.17190 35153 ft 462 kts 118°
2026-04-29 08:53 45.00270 7.25155 35157 ft 461 kts 118°
2026-04-29 08:54 44.97244 7.33152 35145 ft 461 kts 121°
2026-04-29 08:54 44.93323 7.40239 35155 ft 458 kts 134°
2026-04-29 08:55 44.89675 7.45745 35111 ft 459 kts 134°
2026-04-29 08:55 44.85360 7.52303 35101 ft 459 kts 134°
2026-04-29 08:56 44.81030 7.58944 35112 ft 460 kts 134°
2026-04-29 08:56 44.76705 7.65594 35117 ft 460 kts 134°
2026-04-29 08:57 44.72378 7.72236 35116 ft 461 kts 134°
2026-04-29 08:57 44.68045 7.78870 35120 ft 461 kts 134°
2026-04-29 08:58 44.63695 7.85510 35120 ft 461 kts 134°
2026-04-29 08:58 44.59346 7.92133 35119 ft 461 kts 134°
2026-04-29 08:59 44.54992 7.98749 35106 ft 462 kts 134°
2026-04-29 08:59 44.50626 8.05367 35101 ft 462 kts 134°
2026-04-29 09:00 44.46291 8.11923 35089 ft 462 kts 134°
2026-04-29 09:00 44.41920 8.18516 35088 ft 462 kts 134°
2026-04-29 09:01 44.37543 8.25105 35083 ft 461 kts 134°
2026-04-29 09:01 44.33167 8.31676 35079 ft 461 kts 134°
2026-04-29 09:02 44.28796 8.38222 35078 ft 460 kts 134°
2026-04-29 09:02 44.24437 8.44737 35072 ft 459 kts 135°
2026-04-29 09:03 44.20074 8.51242 35072 ft 459 kts 135°
2026-04-29 09:03 44.15711 8.57733 35066 ft 459 kts 135°
2026-04-29 09:04 44.11340 8.64220 35061 ft 459 kts 135°
2026-04-29 09:04 44.06996 8.70653 35062 ft 459 kts 135°
2026-04-29 09:05 44.02590 8.77162 35063 ft 459 kts 135°
2026-04-29 09:05 43.98234 8.83581 35061 ft 459 kts 135°
2026-04-29 09:06 43.93846 8.90034 35064 ft 460 kts 135°
2026-04-29 09:06 43.89456 8.96475 35061 ft 460 kts 135°
2026-04-29 09:07 43.85054 9.02918 35054 ft 460 kts 135°
2026-04-29 09:07 43.80650 9.09351 35060 ft 460 kts 135°
2026-04-29 09:08 43.76241 9.15774 35056 ft 460 kts 135°
2026-04-29 09:08 43.71831 9.22186 35061 ft 460 kts 135°
2026-04-29 09:09 43.67410 9.28599 35060 ft 460 kts 135°
2026-04-29 09:09 43.63016 9.34958 35056 ft 461 kts 135°
2026-04-29 09:10 43.58591 9.41349 35061 ft 461 kts 135°
2026-04-29 09:10 43.54160 9.47735 35060 ft 461 kts 135°
2026-04-29 09:11 43.49695 9.54144 35056 ft 461 kts 136°
2026-04-29 09:11 43.45127 9.60240 35055 ft 460 kts 139°
2026-04-29 09:12 43.40456 9.66248 35051 ft 460 kts 139°
2026-04-29 09:12 43.35794 9.72273 35061 ft 460 kts 139°
2026-04-29 09:13 43.31149 9.78314 35059 ft 460 kts 138°
2026-04-29 09:13 43.26507 9.84356 35052 ft 460 kts 138°
2026-04-29 09:14 43.21866 9.90387 35047 ft 460 kts 138°
2026-04-29 09:14 43.17223 9.96405 35055 ft 459 kts 138°
2026-04-29 09:15 43.12577 10.02413 35056 ft 459 kts 138°
2026-04-29 09:15 43.07929 10.08410 35061 ft 459 kts 138°
2026-04-29 09:16 43.03280 10.14395 35059 ft 459 kts 138°
2026-04-29 09:16 42.98632 10.20366 35060 ft 458 kts 138°
2026-04-29 09:17 42.93983 10.26325 35060 ft 458 kts 138°
2026-04-29 09:17 42.89336 10.32268 35064 ft 458 kts 138°
2026-04-29 09:18 42.84690 10.38198 35062 ft 457 kts 139°
2026-04-29 09:18 42.80070 10.44081 35065 ft 458 kts 139°
2026-04-29 09:19 42.75418 10.49993 35061 ft 457 kts 139°
2026-04-29 09:19 42.70769 10.55888 35066 ft 457 kts 139°
2026-04-29 09:20 42.66116 10.61775 35064 ft 456 kts 139°
2026-04-29 09:20 42.61474 10.67636 35063 ft 456 kts 139°
2026-04-29 09:21 42.56827 10.73491 35064 ft 455 kts 139°
2026-04-29 09:21 42.52180 10.79334 35060 ft 455 kts 139°
2026-04-29 09:22 42.47543 10.85152 35063 ft 454 kts 139°
2026-04-29 09:22 42.42897 10.90968 35068 ft 454 kts 139°
2026-04-29 09:23 42.38261 10.96761 35066 ft 453 kts 139°
2026-04-29 09:23 42.33622 11.02544 35069 ft 453 kts 139°
2026-04-29 09:24 42.28988 11.08310 35068 ft 453 kts 139°
2026-04-29 09:24 42.24352 11.14065 35065 ft 453 kts 139°
2026-04-29 09:25 42.19743 11.19775 35067 ft 453 kts 139°
2026-04-29 09:25 42.15103 11.25513 35065 ft 452 kts 139°
2026-04-29 09:26 42.10461 11.31242 35064 ft 452 kts 139°
2026-04-29 09:26 42.05815 11.36964 35070 ft 452 kts 139°
2026-04-29 09:27 42.01092 11.42550 35069 ft 452 kts 141°
2026-04-29 09:27 41.96271 11.47976 35065 ft 452 kts 142°
2026-04-29 09:28 41.91453 11.53393 35067 ft 452 kts 142°
2026-04-29 09:28 41.86648 11.58827 35063 ft 452 kts 141°
2026-04-29 09:29 41.81842 11.64270 35064 ft 452 kts 141°
2026-04-29 09:29 41.74640 11.72414 35065 ft 451 kts 142°
2026-04-29 09:30 41.69836 11.77831 35065 ft 451 kts 141°
2026-04-29 09:30 41.65031 11.83237 35068 ft 451 kts 142°
2026-04-29 09:31 41.60256 11.88598 35070 ft 451 kts 142°
2026-04-29 09:31 41.55449 11.93985 35068 ft 451 kts 142°
2026-04-29 09:32 41.50643 11.99360 35069 ft 450 kts 142°
2026-04-29 09:32 41.45835 12.04727 35064 ft 450 kts 142°
2026-04-29 09:33 41.41025 12.10084 35069 ft 450 kts 142°
2026-04-29 09:33 41.36218 12.15428 35069 ft 450 kts 142°
2026-04-29 09:34 41.31444 12.20725 35067 ft 450 kts 142°
2026-04-29 09:34 41.26632 12.26053 35067 ft 450 kts 142°
2026-04-29 09:35 41.21820 12.31370 35072 ft 449 kts 142°
2026-04-29 09:35 41.17012 12.36674 35069 ft 449 kts 142°
2026-04-29 09:36 41.12205 12.41965 35071 ft 449 kts 142°
2026-04-29 09:36 41.07416 12.47226 35073 ft 449 kts 142°
2026-04-29 09:37 41.02601 12.52506 35072 ft 449 kts 142°
2026-04-29 09:37 40.97790 12.57770 35069 ft 449 kts 142°
2026-04-29 09:38 40.92974 12.63029 35072 ft 449 kts 142°
2026-04-29 09:38 40.88164 12.68272 35072 ft 448 kts 142°
2026-04-29 09:39 40.83348 12.73511 35077 ft 448 kts 142°
2026-04-29 09:39 40.78535 12.78738 35076 ft 448 kts 142°
2026-04-29 09:40 40.73714 12.83962 35073 ft 448 kts 142°
2026-04-29 09:40 40.68894 12.89176 35076 ft 448 kts 142°
2026-04-29 09:41 40.64065 12.94389 35074 ft 448 kts 142°
2026-04-29 09:41 40.59268 12.99558 35072 ft 448 kts 142°
2026-04-29 09:42 40.54438 13.04752 35076 ft 448 kts 142°
2026-04-29 09:42 40.49611 13.09933 35074 ft 448 kts 142°
2026-04-29 09:43 40.45597 13.14234 35073 ft 448 kts 142°
2026-04-29 09:43 40.40766 13.19402 35075 ft 448 kts 142°
2026-04-29 09:44 40.35927 13.24570 35072 ft 448 kts 142°
2026-04-29 09:44 40.31088 13.29727 35073 ft 448 kts 142°
2026-04-29 09:45 40.26452 13.35207 35079 ft 449 kts 136°
2026-04-29 09:45 40.22048 13.41010 35079 ft 449 kts 135°
2026-04-29 09:46 40.17644 13.46821 35075 ft 450 kts 136°
2026-04-29 09:46 40.13239 13.52557 35072 ft 450 kts 136°
2026-04-29 09:47 40.08782 13.58316 35073 ft 450 kts 136°
2026-04-29 09:47 40.04321 13.64058 35074 ft 450 kts 136°
2026-04-29 09:48 39.99859 13.69791 35074 ft 451 kts 136°
2026-04-29 09:48 39.95410 13.75500 35072 ft 451 kts 136°
2026-04-29 09:49 39.90935 13.81230 35071 ft 452 kts 137°
2026-04-29 09:49 39.86441 13.86973 35070 ft 452 kts 137°
2026-04-29 09:50 39.81946 13.92708 35072 ft 453 kts 137°
2026-04-29 09:50 39.77443 13.98441 35070 ft 453 kts 137°
2026-04-29 09:51 39.72929 14.04176 35073 ft 454 kts 137°
2026-04-29 09:51 39.68406 14.09912 35072 ft 455 kts 137°
2026-04-29 09:52 39.63870 14.15654 35070 ft 455 kts 137°
2026-04-29 09:52 39.59327 14.21393 35069 ft 456 kts 137°
2026-04-29 09:53 39.54771 14.27137 35070 ft 457 kts 137°
2026-04-29 09:53 39.50208 14.32880 35072 ft 458 kts 138°
2026-04-29 09:54 39.45626 14.38635 35041 ft 460 kts 138°
2026-04-29 09:54 39.43311 14.41537 34376 ft 467 kts 138°
2026-04-29 09:54 39.40981 14.44456 33690 ft 465 kts 138°
2026-04-29 09:55 39.38655 14.47368 32892 ft 465 kts 138°
2026-04-29 09:55 39.36354 14.50248 32396 ft 457 kts 138°
2026-04-29 09:55 39.34075 14.53097 31809 ft 453 kts 138°
2026-04-29 09:55 39.31821 14.55912 31277 ft 448 kts 138°
2026-04-29 09:56 39.29589 14.58695 30739 ft 444 kts 138°
2026-04-29 09:56 39.27408 14.61413 30228 ft 439 kts 138°
2026-04-29 09:56 39.25217 14.64140 29640 ft 435 kts 138°
2026-04-29 09:56 39.23054 14.66830 29099 ft 429 kts 138°
2026-04-29 09:57 39.20915 14.69487 28557 ft 424 kts 138°
2026-04-29 09:57 39.18802 14.72110 28016 ft 419 kts 138°
2026-04-29 09:57 39.16714 14.74701 27505 ft 414 kts 138°
2026-04-29 09:57 39.14648 14.77260 26972 ft 410 kts 138°
2026-04-29 09:58 39.12603 14.79792 26465 ft 407 kts 138°
2026-04-29 09:58 39.10572 14.82303 25943 ft 404 kts 138°
2026-04-29 09:58 39.08554 14.84798 25431 ft 400 kts 138°
2026-04-29 09:58 39.06546 14.87277 24923 ft 398 kts 138°
2026-04-29 09:59 39.04555 14.89733 24424 ft 395 kts 138°
2026-04-29 09:59 39.02577 14.92172 23923 ft 392 kts 138°
2026-04-29 09:59 39.00609 14.94596 23383 ft 390 kts 138°
2026-04-29 09:59 38.98655 14.97002 22812 ft 388 kts 138°
2026-04-29 10:00 38.96742 14.99355 22317 ft 383 kts 138°
2026-04-29 10:00 38.94822 15.01715 21798 ft 380 kts 138°
2026-04-29 10:00 38.92922 15.04049 21295 ft 377 kts 138°
2026-04-29 10:00 38.91034 15.06366 20786 ft 374 kts 138°
2026-04-29 10:01 38.89134 15.08696 20280 ft 371 kts 138°
2026-04-29 10:01 38.87298 15.10945 19800 ft 369 kts 138°
2026-04-29 10:01 38.85448 15.13210 19311 ft 367 kts 138°
2026-04-29 10:01 38.83611 15.15458 18817 ft 365 kts 138°
2026-04-29 10:02 38.81773 15.17704 18309 ft 363 kts 138°
2026-04-29 10:02 38.79946 15.19936 17733 ft 362 kts 138°
2026-04-29 10:02 38.78128 15.22155 17212 ft 360 kts 138°
2026-04-29 10:02 38.76324 15.24358 16686 ft 358 kts 138°
2026-04-29 10:03 38.74526 15.26550 16199 ft 354 kts 138°
2026-04-29 10:03 38.72747 15.28718 15695 ft 352 kts 138°
2026-04-29 10:03 38.70978 15.30857 15200 ft 349 kts 140°
2026-04-29 10:03 38.68927 15.32444 14681 ft 343 kts 164°
2026-04-29 10:04 38.66606 15.32908 14155 ft 337 kts 184°
2026-04-29 10:04 38.64302 15.32499 13669 ft 332 kts 192°
2026-04-29 10:04 38.62026 15.31977 13113 ft 331 kts 192°
2026-04-29 10:04 38.59794 15.31477 12606 ft 328 kts 192°
2026-04-29 10:05 38.57521 15.30985 12109 ft 326 kts 192°
2026-04-29 10:05 38.55325 15.30517 11627 ft 323 kts 192°
2026-04-29 10:05 38.53112 15.30065 11171 ft 321 kts 188°
2026-04-29 10:05 38.50934 15.30309 10978 ft 314 kts 164°
2026-04-29 10:06 38.49013 15.31624 10513 ft 316 kts 143°
2026-04-29 10:06 38.47327 15.33407 10082 ft 314 kts 141°
2026-04-29 10:06 38.45687 15.35188 9974 ft 301 kts 141°
2026-04-29 10:06 38.44127 15.36884 9851 ft 289 kts 141°
2026-04-29 10:07 38.42605 15.38529 9505 ft 286 kts 141°
2026-04-29 10:07 38.41083 15.40164 9136 ft 285 kts 141°
2026-04-29 10:07 38.39570 15.41785 8779 ft 282 kts 141°
2026-04-29 10:07 38.38070 15.43386 8442 ft 280 kts 141°
2026-04-29 10:08 38.36580 15.44975 8115 ft 278 kts 141°
2026-04-29 10:08 38.35101 15.46549 7786 ft 275 kts 141°
2026-04-29 10:08 38.33655 15.48088 7459 ft 273 kts 141°
2026-04-29 10:08 38.32178 15.49657 7119 ft 272 kts 141°
2026-04-29 10:09 38.30766 15.51157 6985 ft 262 kts 141°
2026-04-29 10:09 38.29377 15.52632 6920 ft 251 kts 140°
2026-04-29 10:09 38.28051 15.53974 6822 ft 244 kts 150°
2026-04-29 10:09 38.26467 15.54534 6723 ft 232 kts 178°
2026-04-29 10:10 38.24883 15.54666 6571 ft 227 kts 175°
2026-04-29 10:10 38.23305 15.54854 6311 ft 227 kts 173°
2026-04-29 10:10 38.21767 15.55435 5752 ft 241 kts 155°
2026-04-29 10:10 38.20230 15.56454 5107 ft 255 kts 152°
2026-04-29 10:11 38.18642 15.57546 4409 ft 262 kts 152°
2026-04-29 10:11 38.16996 15.58669 3453 ft 275 kts 152°
2026-04-29 10:11 38.15301 15.59802 2904 ft 268 kts 153°
2026-04-29 10:11 38.13725 15.60838 2738 ft 241 kts 154°
2026-04-29 10:12 38.12306 15.61763 2423 ft 218 kts 158°
2026-04-29 10:12 38.10940 15.62022 2140 ft 191 kts 194°
2026-04-29 10:12 38.09943 15.61180 1992 ft 157 kts 234°
2026-04-29 10:12 38.09659 15.60022 2051 ft 134 kts 274°
2026-04-29 10:13 38.10138 15.58991 2103 ft 143 kts 317°
2026-04-29 10:13 38.11069 15.58436 1901 ft 148 kts 340°
2026-04-29 10:13 38.12007 15.58013 1803 ft 144 kts 336°
2026-04-29 10:13 38.12981 15.57685 1667 ft 148 kts 358°
2026-04-29 10:14 38.13903 15.58139 1668 ft 138 kts 40°
2026-04-29 10:14 38.14602 15.59049 1771 ft 147 kts 59°
2026-04-29 10:14 38.14881 15.60265 1780 ft 143 kts 96°
2026-04-29 10:14 38.14402 15.61284 1635 ft 138 kts 154°
2026-04-29 10:15 38.13532 15.61645 1645 ft 125 kts 168°
2026-04-29 10:15 38.12697 15.61919 1538 ft 129 kts 167°
2026-04-29 10:15 38.11800 15.62259 1372 ft 142 kts 167°
2026-04-29 10:15 38.10857 15.62720 1049 ft 143 kts 156°
2026-04-29 10:16 38.09994 15.63296 709 ft 139 kts 156°
2026-04-29 10:16 38.09430 15.63669 514 ft 137 kts 156°
2026-04-29 10:16 38.08337 15.64375 163 ft 125 kts 155°
2026-04-29 10:16 38.07620 15.64835 56 ft 104 kts 156°
2026-04-29 10:17 38.07297 15.65043 48 ft 17 kts 139°
2026-04-29 10:17 38.07302 15.65135 47 ft 6 kts 64°
2026-04-29 10:17 38.07322 15.65183 49 ft 6 kts 61°
2026-04-29 10:17 38.07342 15.65230 46 ft 6 kts 61°
2026-04-29 10:18 38.07360 15.65277 48 ft 6 kts 73°
2026-04-29 10:18 38.07356 15.65306 48 ft 0 kts 106°